{"data":{"norad_id":69368,"intl_designator":"2026-123R","name":"STARLINK-37687","alt_names":[],"object_type":"PAYLOAD","status":"ACTIVE","operator":null,"country":"US","launch_date":"2026-06-04","launch_site_code":"AFETR","launch_vehicle":null,"mission":null,"orbit_class":"UNKNOWN","rcs_meters":null,"size_class":null,"mass_kg":null,"dimensions":null,"purposes":["comms"],"wikipedia_slug":null,"has_3d_model":false,"image_url":null,"decayed_at":null,"tle_current":{"epoch":"2026-09-19T23:52:50.138400Z","epoch_age_seconds":72655,"freshness":"FRESH","line1":"1 69368U 26123R   26262.99502475  .00025326  00000+0  75769-3 0  9999","line2":"2 69368  53.1587 143.9812 0000762  51.3922 308.7149 15.34419889 16795","mean_motion":15.34419889,"eccentricity":7.62e-5,"inclination_deg":53.1587,"raan_deg":143.9812,"arg_perigee_deg":51.3922,"mean_anomaly_deg":308.7149,"bstar":0.00075769,"rev_number":1679,"period_min":93.846541635906,"perigee_km":462.12285902438,"apogee_km":463.16539406806,"semimajor_km":6840.7811265462,"source":"CELESTRAK","updated_at":"2026-09-20T09:00:44.167423Z"}}}